Location: Clermont
(50.2608°N, 4.3172°E)
Time: 16:43:08
(UTC+00:00)

Cosmos 540 Rocket - Pass Details

Date: 13 August 2020
Orbit: 740 x 754 km, 74.1° (Epoch: 24 September)

Event Time Altitude Azimuth Distance (km) Brightness Sun altitude
Rises 21:19:45 0° 335° (NNW) 3,214 8.3 -17.8°
Reaches altitude 10° 21:22:07 10° 335° (NNW) 2,287 7.2 -18.0°
Maximum altitude 21:27:18 83° 249° (WSW) 766 3.4 -18.5°
Enters shadow 21:29:36 34° 163° (SSE) 1,221 4.0 -18.7°
